VA3XLT-1 Weather Reports


time (UTC)temp
C
wind
direction
speed
KPH
gust
KPH
rain 1hr
cm
rain 24hr
cm
rain mn
cm
humidity
%
barometer
mb
20260506051236 9 215 0.0 0.0 0.00 0.00 0.00 95 1008.8
20260506050736 9 215 0.0 0.0 0.00 0.00 0.00 95 1008.8
20260506050236 9 215 0.0 0.0 0.00 0.00 0.00 95 1008.7
20260506044736 10 215 0.0 0.0 0.00 0.00 0.00 96 1008.8
20260506044236 10 215 0.0 0.0 0.00 0.00 0.00 95 1008.7
20260506043736 10 215 0.0 0.0 0.00 0.00 0.00 96 1008.9
20260506043236 10 215 0.0 0.0 0.00 0.00 0.00 96 1008.8
20260506042736 10 215 0.0 0.0 0.00 0.00 0.00 96 1008.8
20260506042236 10 215 0.0 0.0 0.00 0.00 0.00 96 1008.7
20260506041736 10 215 0.0 0.0 0.00 0.00 0.00 96 1008.6
20260506041236 10 215 0.0 0.0 0.00 0.00 0.00 96 1008.6
20260506040736 10 215 0.0 0.0 0.00 0.00 0.00 96 1008.7
20260506040236 10 215 0.0 0.0 0.00 0.00 0.00 96 1008.7
20260506035736 10 215 0.0 0.0 0.00 0.00 0.00 96 1008.7
20260506035236 10 215 0.0 0.0 0.00 0.00 0.00 96 1008.7
20260506034736 10 215 0.0 0.0 0.00 0.00 0.00 96 1008.8
20260506034236 10 215 0.0 0.0 0.00 0.00 0.00 96 1008.8
20260506033736 10 215 0.0 0.0 0.00 0.00 0.00 96 1008.9
20260506033236 10 215 0.0 0.0 0.00 0.00 0.00 96 1008.9
20260506032736 10 215 0.0 0.0 0.00 0.00 0.00 96 1009.0
20260506032236 10 215 0.0 0.0 0.00 0.00 0.00 96 1009.0
20260506031736 10 215 0.0 0.0 0.00 0.00 0.00 96 1009.1
20260506031236 10 215 0.0 0.0 0.00 0.00 0.00 96 1009.0
20260506030736 10 215 0.0 8.0 0.00 0.00 0.00 96 1009.1
20260506030236 10 220 0.0 0.0 0.00 0.00 0.00 96 1009.2
20260506025736 10 220 0.0 0.0 0.00 0.00 0.00 96 1009.1
20260506025236 10 220 0.0 0.0 0.00 0.00 0.00 96 1009.2
20260506024736 10 220 0.0 0.0 0.00 0.00 0.00 96 1009.2
20260506024236 10 220 0.0 0.0 0.00 0.00 0.00 96 1009.1
20260506023736 10 220 0.0 0.0 0.00 0.00 0.00 96 1009.1
20260506023236 10 220 0.0 0.0 0.00 0.00 0.00 96 1008.9
20260506022736 10 220 0.0 0.0 0.00 0.00 0.00 96 1008.9
20260506022236 10 220 0.0 0.0 0.00 0.00 0.00 95 1008.8
20260506021736 10 220 0.0 0.0 0.00 0.00 0.00 95 1008.8
20260506021236 10 220 0.0 0.0 0.00 0.00 0.00 95 1008.7
20260506020736 10 220 0.0 0.0 0.00 0.00 0.00 95 1008.7
20260506020236 10 220 0.0 0.0 0.00 0.00 0.00 95 1008.7
20260506015736 10 220 0.0 0.0 0.00 0.00 0.00 95 1008.6
20260506015236 10 220 0.0 0.0 0.00 0.00 0.00 95 1008.6
20260506014736 10 220 0.0 0.0 0.00 0.00 0.00 95 1008.5
20260506014236 10 220 0.0 0.0 0.00 0.00 0.00 95 1008.4
20260506013736 10 220 0.0 0.0 0.00 0.00 0.00 95 1008.4
20260506013236 10 220 0.0 0.0 0.00 0.00 0.00 95 1008.4
20260506012736 10 220 0.0 0.0 0.00 0.00 0.00 95 1008.4
20260506012236 10 220 0.0 0.0 0.00 0.00 0.00 95 1008.4
20260506011736 10 220 0.0 0.0 0.00 0.00 0.00 95 1008.4
20260506011236 10 220 0.0 0.0 0.00 0.00 0.00 95 1008.4
20260506010736 10 220 0.0 0.0 0.00 0.00 0.00 95 1008.4
20260506010236 10 220 0.0 0.0 0.00 0.00 0.00 95 1008.5
20260506005736 10 220 0.0 0.0 0.00 0.00 0.00 95 1008.5
20260506005236 10 220 0.0 0.0 0.00 0.00 0.00 94 1008.5
20260506004736 10 220 0.0 1.6 0.00 0.00 0.00 94 1008.5
20260506004236 10 209 0.0 0.0 0.00 0.00 0.00 94 1008.5
20260506003736 11 209 0.0 0.0 0.00 0.00 0.00 94 1008.2
20260506003236 11 209 0.0 0.0 0.00 0.00 0.00 94 1008.0
20260506002736 11 209 0.0 0.0 0.00 0.00 0.00 94 1008.0
20260506002236 11 209 0.0 0.0 0.00 0.00 0.00 94 1007.9
20260506001736 11 209 0.0 0.0 0.00 0.00 0.00 94 1007.8
20260506001236 11 209 0.0 0.0 0.00 0.00 0.00 94 1007.8
20260506000736 11 209 0.0 0.0 0.00 0.00 0.00 93 1007.6
20260506000236 11 209 0.0 0.0 0.00 0.00 0.00 93 1007.6
20260505235736 11 209 0.0 0.0 0.00 0.00 0.00 94 1007.6
20260505235236 11 209 0.0 0.0 0.00 0.00 0.00 93 1007.6
20260505234736 11 209 0.0 0.0 0.00 0.00 0.00 94 1007.9
20260505234236 11 209 0.0 4.8 0.00 0.00 0.00 94 1007.8
20260505233736 11 250 0.0 0.0 0.00 0.00 0.00 94 1007.7
20260505233236 11 250 0.0 0.0 0.00 0.00 0.00 94 1007.7
20260505232736 11 250 0.0 0.0 0.00 0.00 0.00 93 1007.6
20260505232236 11 250 0.0 0.0 0.00 0.00 0.00 92 1007.7
20260505231736 11 250 0.0 0.0 0.00 0.00 0.00 92 1007.6
20260505231236 11 250 0.0 6.4 0.00 0.00 0.00 92 1007.6
20260505230736 11 261 1.6 3.2 0.00 0.00 0.00 92 1007.7
20260505230236 11 191 0.0 0.0 0.00 0.00 0.00 92 1007.7
20260505225736 11 191 0.0 3.2 0.00 0.00 0.00 91 1007.9
20260505225236 11 330 0.0 6.4 0.00 0.00 0.00 90 1007.8
20260505224736 11 150 0.0 0.0 0.00 0.00 0.00 90 1007.8
20260505224236 11 150 0.0 0.0 0.00 0.00 0.00 90 1007.7
20260505223736 11 150 0.0 0.0 0.00 0.00 0.00 90 1007.7
20260505223236 11 150 0.0 1.6 0.00 0.00 0.00 91 1007.8
20260505222736 11 150 0.0 0.0 0.00 0.00 0.00 91 1007.9
20260505222236 11 150 0.0 6.4 0.00 0.00 0.00 92 1007.9
20260505221736 12 188 0.0 4.8 0.00 0.00 0.00 91 1007.9
20260505221236 12 298 0.0 0.0 0.00 0.00 0.00 91 1007.9
20260505220736 12 298 0.0 0.0 0.00 0.00 0.00 91 1007.8
20260505220236 12 298 0.0 0.0 0.00 0.00 0.00 90 1007.8
20260505215736 12 298 0.0 0.0 0.00 0.00 0.00 90 1007.8
20260505215236 12 298 0.0 0.0 0.00 0.00 0.00 88 1007.7
20260505214737 12 298 0.0 0.0 0.00 0.00 0.00 88 1007.7
20260505214236 12 298 0.0 0.0 0.00 0.00 0.00 88 1007.8
20260505213737 12 298 0.0 1.6 0.00 0.00 0.00 86 1007.8
20260505213237 12 348 0.0 0.0 0.00 0.00 0.00 86 1007.8
20260505212737 12 348 0.0 0.0 0.00 0.00 0.00 86 1007.7
20260505212237 12 348 0.0 0.0 0.00 0.00 0.00 85 1007.8
20260505211737 12 348 0.0 0.0 0.00 0.00 0.00 83 1007.7
20260505211237 12 348 0.0 0.0 0.00 0.00 0.00 84 1007.8
20260505210737 12 348 0.0 0.0 0.00 0.00 0.00 85 1007.8
20260505210237 12 348 0.0 0.0 0.00 0.00 0.00 85 1007.8
20260505205737 12 348 0.0 0.0 0.00 0.00 0.00 85 1007.8
20260505205237 12 348 0.0 1.6 0.00 0.00 0.00 85 1007.8
20260505204737 12 217 0.0 0.0 0.00 0.00 0.00 84 1008.0
20260505204237 12 217 0.0 0.0 0.00 0.00 0.00 84 1008.1
20260505203737 12 217 0.0 3.2 0.00 0.00 0.00 83 1008.2
20260505203237 13 205 1.6 4.8 0.00 0.00 0.00 84 1008.3
20260505202737 13 300 0.0 0.0 0.00 0.00 0.00 83 1008.4
20260505202237 13 300 0.0 0.0 0.00 0.00 0.00 83 1008.2
20260505201737 13 300 0.0 0.0 0.00 0.00 0.00 81 1008.2
20260505201237 13 300 0.0 0.0 0.00 0.00 0.00 82 1007.9
20260505200737 13 300 0.0 0.0 0.00 0.00 0.00 81 1007.8
20260505200237 13 300 0.0 0.0 0.00 0.00 0.00 80 1007.9
20260505195737 13 300 0.0 8.0 0.00 0.00 0.00 79 1008.1
20260505195237 14 326 6.4 6.4 0.00 0.00 0.00 79 1008.2
20260505194737 14 344 0.0 0.0 0.00 0.00 0.00 76 1008.3
20260505194237 14 344 0.0 3.2 0.00 0.00 0.00 74 1008.4
20260505193737 15 284 0.0 0.0 0.00 0.00 0.00 73 1008.3
20260505193237 15 284 0.0 3.2 0.00 0.00 0.00 69 1008.4
20260505192737 15 319 0.0 9.7 0.00 0.00 0.00 67 1008.4
20260505192237 15 0 0.0 6.4 0.00 0.00 0.00 68 1008.4
20260505191737 15 285 0.0 4.8 0.00 0.00 0.00 68 1008.4
20260505191237 15 246 0.0 4.8 0.00 0.00 0.00 69 1008.2
20260505190737 15 118 0.0 0.0 0.00 0.00 0.00 68 1008.1
20260505190237 15 118 0.0 4.8 0.00 0.00 0.00 68 1008.1
20260505185737 15 298 0.0 0.0 0.00 0.00 0.00 66 1007.9
20260505185237 16 298 0.0 6.4 0.00 0.00 0.00 62 1007.9
20260505184737 16 331 0.0 0.0 0.00 0.00 0.00 64 1007.8
20260505184237 16 331 0.0 3.2 0.00 0.00 0.00 62 1007.7
20260505183737 17 264 0.0 3.2 0.00 0.00 0.00 62 1007.6
20260505183237 17 317 0.0 4.8 0.00 0.00 0.00 60 1007.5
20260505182737 17 316 1.6 9.7 0.00 0.00 0.00 63 1007.7
20260505182237 17 285 0.0 6.4 0.00 0.00 0.00 59 1007.7
20260505181737 17 337 0.0 3.2 0.00 0.00 0.00 64 1007.4
20260505181237 16 251 0.0 0.0 0.00 0.00 0.00 69 1007.1
20260505180737 16 251 0.0 0.0 0.00 0.00 0.00 74 1007.3
20260505180237 16 251 0.0 0.0 0.00 0.00 0.00 71 1007.4
20260505175737 16 251 0.0 0.0 0.00 0.00 0.00 68 1007.3
20260505175237 16 251 0.0 0.0 0.00 0.00 0.00 67 1007.2
20260505174737 16 251 0.0 0.0 0.00 0.00 0.00 67 1007.3
20260505174237 16 251 0.0 0.0 0.00 0.00 0.00 61 1007.2
20260505173737 16 251 0.0 0.0 0.00 0.00 0.00 63 1007.2
20260505173237 16 251 0.0 0.0 0.00 0.00 0.00 63 1007.3
20260505172737 16 251 0.0 0.0 0.00 0.00 0.00 61 1006.9
20260505172237 16 251 0.0 4.8 0.00 0.00 0.00 61 1007.0
20260505171737 16 307 1.6 1.6 0.00 0.00 0.00 62 1007.0
20260505171237 16 330 0.0 0.0 0.00 0.00 0.00 55 1007.0
20260505170737 16 330 0.0 4.8 0.00 0.00 0.00 61 1007.2
20260505170237 16 0 0.0 3.2 0.00 0.00 0.00 62 1007.3
20260505165737 17 8 0.0 0.0 0.00 0.00 0.00 62 1007.4
20260505165237 17 8 0.0 8.0 0.00 0.00 0.00 62 1007.3
20260505164737 16 101 0.0 0.0 0.00 0.00 0.00 59 1007.3
20260505164237 16 101 0.0 0.0 0.00 0.00 0.00 60 1007.3
20260505163737 16 101 0.0 0.0 0.00 0.00 0.00 57 1007.1
20260505163237 16 101 0.0 3.2 0.00 0.00 0.00 61 1006.9
20260505162737 16 80 0.0 3.2 0.00 0.00 0.00 59 1006.6
20260505162237 16 99 0.0 0.0 0.00 0.00 0.00 61 1006.5
20260505161737 16 99 0.0 0.0 0.00 0.00 0.00 59 1006.4
20260505161237 16 99 0.0 3.2 0.00 0.00 0.00 57 1006.4
20260505160737 16 139 0.0 9.7 0.00 0.00 0.00 60 1006.5
20260505160237 16 337 0.0 9.7 0.00 0.00 0.00 63 1006.6
20260505153237 16 307 6.4 11.3 0.00 0.00 0.00 62 1006.6
20260505152737 16 172 0.0 8.0 0.00 0.00 0.00 63 1006.7
20260505152237 16 104 0.0 12.9 0.00 0.00 0.00 59 1006.5
20260505151737 16 111 0.0 12.9 0.00 0.00 0.00 63 1006.4
20260505151237 16 316 1.6 6.4 0.00 0.00 0.00 66 1006.3
20260505150737 16 281 4.8 9.7 0.00 0.00 0.00 65 1006.3
20260505150237 16 291 0.0 9.7 0.00 0.00 0.00 65 1006.3
20260505140237 15 219 1.6 8.0 0.00 0.00 0.00 71 1005.5
20260505130238 16 350 8.0 14.5 0.00 0.00 0.00 79 1004.0
20260505124738 15 345 4.8 12.9 0.00 0.00 0.00 82 1003.8
20260505124238 15 327 4.8 16.1 0.00 0.00 0.00 82 1004.0
20260505123738 15 358 9.7 14.5 0.00 0.00 0.00 82 1004.0
20260505123238 15 302 0.0 14.5 0.00 0.00 0.00 83 1004.0
20260505122738 15 279 9.7 19.3 0.00 0.00 0.00 83 1004.1
20260505122238 15 215 1.6 9.7 0.00 0.00 0.00 84 1004.0
20260505121738 15 284 0.0 11.3 0.00 0.00 0.00 84 1004.1
20260505121238 15 2 0.0 11.3 0.00 0.00 0.00 84 1004.1
20260505120738 15 358 6.4 16.1 0.00 0.00 0.00 83 1004.0
20260505120238 15 310 4.8 14.5 0.00 0.00 0.00 83 1003.7
20260505115738 15 229 0.0 6.4 0.00 0.00 0.00 84 1003.6
20260505115238 15 319 3.2 8.0 0.00 0.00 0.00 83 1003.4
20260505114738 15 160 1.6 11.3 0.00 0.00 0.00 83 1003.4
20260505114238 15 101 0.0 14.5 0.00 0.00 0.00 83 1003.3
20260505113738 14 344 1.6 8.0 0.00 0.00 0.00 83 1003.3
20260505113238 15 320 0.0 9.7 0.00 0.00 0.00 84 1003.3
20260505112738 15 192 4.8 6.4 0.00 0.00 0.00 83 1003.1
20260505112238 15 80 0.0 6.4 0.00 0.00 0.00 83 1002.9
20260505111738 15 178 0.0 9.7 0.00 0.00 0.00 83 1002.8
20260505111238 15 198 4.8 6.4 0.00 0.00 0.00 83 1002.8
20260505110738 15 312 0.0 4.8 0.00 0.00 0.00 83 1002.8
20260505110238 15 261 0.0 1.6 0.00 0.00 0.00 83 1002.6
20260505101738 15 317 8.0 9.7 0.00 0.00 0.00 81 1001.9
20260505101238 15 70 1.6 16.1 0.00 0.00 0.00 81 1001.9
20260505100738 15 129 1.6 8.0 0.00 0.00 0.00 81 1001.8
20260505100238 15 344 0.0 9.7 0.00 0.00 0.00 80 1001.8
20260505095738 15 330 1.6 9.7 0.00 0.00 0.00 81 1001.9
20260505095238 15 285 0.0 11.3 0.00 0.00 0.00 81 1001.9
20260505094738 15 251 0.0 11.3 0.00 0.00 0.00 81 1001.9
20260505094238 15 347 3.2 8.0 0.00 0.00 0.00 81 1001.9
20260505093738 15 45 0.0 9.7 0.00 0.00 0.00 81 1001.8
20260505093238 15 267 1.6 6.4 0.00 0.00 0.00 81 1001.6
20260505092738 15 188 3.2 4.8 0.00 0.00 0.00 81 1001.7
20260505092238 15 255 0.0 8.0 0.00 0.00 0.00 81 1001.7
20260505091738 15 358 4.8 8.0 0.00 0.00 0.00 81 1001.7
20260505091238 15 170 0.0 11.3 0.00 0.00 0.00 81 1001.7
20260505090738 15 285 1.6 9.7 0.00 0.00 0.00 81 1001.6
20260505090238 15 258 0.0 11.3 0.00 0.00 0.00 81 1001.6
20260505085738 15 216 1.6 6.4 0.00 0.00 0.00 81 1001.5
20260505085238 15 194 0.0 14.5 0.00 0.00 0.00 80 1001.4
20260505084738 15 168 0.0 19.3 0.00 0.00 0.00 81 1001.4
20260505084238 15 317 1.6 14.5 0.00 0.00 0.00 80 1001.2
20260505083738 15 199 12.9 12.9 0.00 0.00 0.00 80 1001.1
20260505083238 15 306 0.0 14.5 0.00 0.00 0.00 81 1001.1
20260505082738 15 278 1.6 8.0 0.00 0.00 0.00 80 1000.9
20260505082238 15 351 1.6 6.4 0.00 0.00 0.00 80 1000.9
20260505081738 15 250 1.6 9.7 0.00 0.00 0.00 80 1000.7
20260505081238 15 201 3.2 6.4 0.00 0.00 0.00 80 1000.7
20260505080738 15 268 0.0 12.9 0.00 0.00 0.00 80 1000.4
20260505080238 15 184 11.3 11.3 0.00 0.00 0.00 80 1000.5
20260505075738 15 149 1.6 11.3 0.00 0.00 0.00 79 1000.4
20260505075238 15 255 4.8 14.5 0.00 0.00 0.00 79 1000.3
20260505074738 15 299 0.0 8.0 0.00 0.00 0.00 78 1000.4
20260505074238 15 232 6.4 11.3 0.00 0.00 0.00 78 1000.3
20260505073738 16 18 0.0 11.3 0.00 0.00 0.00 79 1000.3
20260505073238 16 205 8.0 11.3 0.00 0.00 0.00 78 1000.1
20260505072738 16 222 3.2 11.3 0.00 0.00 0.00 78 1000.0
20260505072238 15 223 8.0 14.5 0.00 0.00 0.00 78 1000.0
20260505071738 15 247 3.2 12.9 0.00 0.00 0.00 79 999.9
20260505071238 15 199 9.7 9.7 0.00 0.00 0.00 80 1000.0
20260505070738 15 225 4.8 11.3 0.00 0.00 0.00 80 1000.1
20260505070238 16 219 4.8 9.7 0.00 0.00 0.00 79 1000.1
20260505065738 16 194 0.0 12.9 0.00 0.00 0.00 79 1000.3
20260505065238 16 240 3.2 6.4 0.00 0.00 0.00 79 1000.3
20260505064738 16 205 1.6 12.9 0.00 0.00 0.00 78 1000.5
20260505064238 16 227 3.2 11.3 0.00 0.00 0.00 80 1000.7
20260505063738 16 278 1.6 8.0 0.00 0.00 0.00 81 1000.7
20260505063238 16 257 0.0 0.0 0.00 0.00 0.00 81 1000.5
20260505062738 16 257 0.0 8.0 0.00 0.00 0.00 81 1000.9
20260505062238 16 244 0.0 6.4 0.00 0.00 0.00 80 1001.0
20260505061738 16 237 0.0 14.5 0.00 0.00 0.00 79 1000.9
20260505061238 16 217 11.3 14.5 0.00 0.00 0.00 80 1001.1
20260505060738 15 348 3.2 9.7 0.00 0.00 0.00 82 1001.3
20260505060238 15 329 0.0 1.6 0.00 0.00 0.00 83 1001.5